Weather History for College Park, MD

Change the Weather History Date:

Thursday, March 1, 2012

  Actual Average Record
Temperature  
Mean Temperature 58 °F -  
Max Temperature 68 °F 50 °F 78 °F (1972)
Min Temperature 48 °F 29 °F 11 °F (1980)
Degree Days  
Heating Degree Days 6    
Growing Degree Days 8 (Base 50)    
Moisture  
Dew Point 42 °F    
Average Humidity 59    
Maximum Humidity 96    
Minimum Humidity 26    
Precipitation  
Precipitation 0.00 in - - ()
Sea Level Pressure  
Sea Level Pressure 29.71 in    
Wind  
Wind Speed 4 mph (NW)    
Max Wind Speed 13 mph    
Max Gust Speed 20 mph    
Visibility 9 miles    
Events      
Averages and records for this station are not official NWS values.
T = Trace of Precipitation, MM = Missing Value Source: NWS Daily Summary

Daily Weather History Graph

Daily Weather History Graph

Search for Another Location

Airport:

Trip Planner

Search our weather history database for the weather conditions in past years. The results will help you decide how hot, cold, wet, or windy it might be!

Date:

Astronomy

Mar. 01, 2012 Rise Set
Actual Time 6:39 AM EST 6:00 PM EST
Civil Twilight 6:12 AM EST 6:27 PM EST
Nautical Twilight 5:41 AM EST 6:58 PM EST
Astronomical Twilight 5:10 AM EST 7:29 PM EST
Moon 11:21 AM EST (3/1) 1:34 AM EST (3/1)
Length of Visible Light 12h 14m
Length of Day
11h 21m
First Quarter, 56% of the Moon is Illuminated
Mar 1
First Quarter
Mar 8
Full
Mar 14
Last Quarter
Mar 22
New
Mar 30
First Quarter

Hourly Weather History & Observations

Time (EST) Temp. Dew Point Humidity Pressure Visibility Wind Dir Wind Speed Gust Speed Precip Events Conditions
12:05 AM 53.1 °F 52.0 °F 96% 29.68 in 1.5 mi SE 3.5 mph - N/A   Overcast
12:25 AM 55.4 °F 54.3 °F 96% 29.66 in 4.0 mi South 4.6 mph - N/A   Overcast
12:40 AM 56.7 °F 55.6 °F 96% 29.66 in 7.0 mi South 4.6 mph - N/A   Overcast
1:10 AM 58.1 °F 56.5 °F 94% 29.63 in 10.0 mi South 4.6 mph - N/A   Mostly Cloudy
1:30 AM 58.3 °F 56.3 °F 93% 29.63 in 10.0 mi SSW 3.5 mph - N/A   Mostly Cloudy
1:50 AM 58.5 °F 56.3 °F 93% 29.62 in 10.0 mi South 3.5 mph - N/A   Overcast
2:15 AM 58.3 °F 56.3 °F 93% 29.63 in 10.0 mi West 3.5 mph - N/A   Overcast
2:35 AM 58.5 °F 56.3 °F 93% 29.64 in 10.0 mi WNW 4.6 mph - N/A   Overcast
2:55 AM 58.8 °F 56.5 °F 92% 29.63 in 10.0 mi SW 3.5 mph - N/A   Overcast
3:20 AM 59.0 °F 55.9 °F 90% 29.63 in 10.0 mi Calm Calm - N/A   Scattered Clouds
3:40 AM 58.6 °F 55.8 °F 90% 29.63 in 10.0 mi Calm Calm - N/A   Scattered Clouds
4:00 AM 58.3 °F 55.8 °F 91% 29.63 in 10.0 mi Calm Calm - N/A   Clear
4:20 AM 58.1 °F 55.6 °F 91% 29.63 in 10.0 mi Calm Calm - N/A   Clear
4:45 AM 56.5 °F 54.7 °F 94% 29.62 in 7.0 mi Calm Calm - N/A   Clear
5:05 AM 54.7 °F 53.2 °F 95% 29.62 in 3.0 mi Calm Calm - N/A   Clear
5:25 AM 51.4 °F 50.0 °F 95% 29.62 in 0.5 mi Calm Calm - N/A   Unknown
5:45 AM 53.8 °F 52.7 °F 96% 29.62 in 0.8 mi Calm Calm - N/A   Unknown
6:30 AM 52.2 °F 51.1 °F 96% 29.63 in 0.5 mi Calm Calm - N/A   Mostly Cloudy
6:50 AM 55.8 °F 54.7 °F 96% 29.63 in 2.5 mi Calm Calm - N/A   Scattered Clouds
7:10 AM 51.6 °F 50.5 °F 96% 29.63 in 0.2 mi Calm Calm - N/A   Unknown
7:35 AM 54.7 °F 53.4 °F 96% 29.64 in 3.0 mi Calm Calm - N/A   Clear
7:55 AM 57.2 °F 55.8 °F 95% 29.64 in 10.0 mi Calm Calm - N/A   Clear
8:15 AM 58.8 °F 52.2 °F 79% 29.65 in 10.0 mi SW 5.8 mph - N/A   Clear
8:35 AM 61.7 °F 46.4 °F 57% 29.65 in 10.0 mi WSW 5.8 mph - N/A   Clear
9:00 AM 63.5 °F 41.4 °F 44% 29.66 in 10.0 mi West 6.9 mph - N/A   Clear
9:20 AM 64.4 °F 42.1 °F 44% 29.66 in 10.0 mi West 4.6 mph - N/A   Clear
9:40 AM 64.6 °F 37.6 °F 37% 29.67 in 10.0 mi WNW 4.6 mph 18.4 mph N/A   Clear
10:05 AM 64.6 °F 34.7 °F 33% 29.67 in 10.0 mi West 11.5 mph 19.6 mph N/A   Clear
10:25 AM 64.6 °F 35.2 °F 34% 29.68 in 10.0 mi WNW 6.9 mph 17.3 mph N/A   Clear
10:45 AM 65.1 °F 34.0 °F 31% 29.68 in 10.0 mi WNW 9.2 mph - N/A   Clear
11:15 AM 66.0 °F 33.6 °F 30% 29.69 in 10.0 mi WNW 10.4 mph - N/A   Clear
12:50 PM 66.4 °F 31.3 °F 27% 29.68 in 10.0 mi NNW 4.6 mph - N/A   Scattered Clouds
1:15 PM 67.1 °F 31.3 °F 26% 29.67 in 10.0 mi NNW 9.2 mph - N/A   Clear
1:35 PM 68.0 °F 32.0 °F 26% 29.67 in 10.0 mi NW 9.2 mph - N/A   Clear
1:55 PM 68.2 °F 31.8 °F 26% 29.67 in 10.0 mi NNW 8.1 mph - N/A   Clear
2:20 PM 67.5 °F 31.5 °F 26% 29.68 in 10.0 mi West 8.1 mph 16.1 mph N/A   Scattered Clouds
3:00 PM 67.6 °F 31.6 °F 26% 29.68 in 10.0 mi NW 10.4 mph - N/A   Scattered Clouds
3:20 PM 67.3 °F 31.5 °F 26% 29.69 in 10.0 mi NW 9.2 mph - N/A   Clear
3:45 PM 66.7 °F 30.7 °F 26% 29.70 in 10.0 mi North 8.1 mph - N/A   Clear
4:05 PM 65.8 °F 30.4 °F 27% 29.71 in 10.0 mi NNW 12.7 mph 17.3 mph N/A   Clear
4:25 PM 65.3 °F 30.9 °F 28% 29.73 in 10.0 mi NW 8.1 mph - N/A   Clear
4:45 PM 64.0 °F 30.0 °F 28% 29.74 in 10.0 mi NW 8.1 mph - N/A   Clear
5:10 PM 62.6 °F 30.0 °F 29% 29.76 in 10.0 mi NNW 12.7 mph 17.3 mph N/A   Clear
5:30 PM 61.5 °F 29.8 °F 30% 29.77 in 10.0 mi North 10.4 mph 16.1 mph N/A   Clear
5:50 PM 58.8 °F 32.2 °F 37% 29.79 in 10.0 mi North 9.2 mph 16.1 mph N/A   Clear
6:10 PM 57.7 °F 32.0 °F 38% 29.81 in 10.0 mi North 9.2 mph - N/A   Clear
6:35 PM 56.8 °F 32.0 °F 39% 29.83 in 10.0 mi North 4.6 mph - N/A   Clear
6:55 PM 55.9 °F 32.2 °F 41% 29.84 in 10.0 mi North 5.8 mph - N/A   Clear
7:15 PM 54.5 °F 30.6 °F 40% 29.86 in 10.0 mi North 10.4 mph - N/A   Clear
7:35 PM 53.6 °F 31.1 °F 42% 29.88 in 10.0 mi North 6.9 mph - N/A   Clear
8:00 PM 52.5 °F 30.7 °F 43% 29.90 in 10.0 mi NNW 6.9 mph - N/A   Clear
8:20 PM 51.8 °F 30.0 °F 43% 29.91 in 10.0 mi North 6.9 mph - N/A   Clear
8:40 PM 51.1 °F 30.0 °F 44% 29.93 in 10.0 mi North 5.8 mph - N/A   Clear
9:25 PM 49.3 °F 29.8 °F 47% 29.95 in 10.0 mi North 4.6 mph - N/A   Clear
9:45 PM 49.1 °F 29.1 °F 46% 29.96 in 10.0 mi NNE 3.5 mph - N/A   Clear
10:00 PM 48.2 °F 29.1 °F 48% 29.96 in 10.0 mi NNE 4.6 mph - N/A   Clear
10:25 PM 47.3 °F 28.9 °F 49% 29.97 in 10.0 mi Calm Calm - N/A   Clear
10:50 PM 46.6 °F 28.6 °F 50% 29.98 in 10.0 mi Calm Calm - N/A   Clear
11:10 PM 45.1 °F 29.7 °F 55% 29.98 in 10.0 mi Calm Calm - N/A   Clear
11:30 PM 43.3 °F 32.2 °F 65% 29.98 in 10.0 mi Calm Calm - N/A   Clear
11:55 PM 43.0 °F 32.0 °F 65% 29.99 in 10.0 mi Calm Calm - N/A   Clear